Weather in Sablinskoye

Russia / Stavropol Krai     44°31′19″N   43°13′54″E
temp.,
°C
wind,
m/s
gust,
m/s
humid.,
%
clouds,
%
prec.,
mm/h
press.,
hPa
HPBL,
m
17 may, mon
mon1700:00+15e4852100 0.0 1005142
03:00+14e3353100 0.0 100449
06:00+15ene226329 0.0 100463
09:00+21nnw11530 0.0 1005348
12:00+26nne22505 0.0 1005974
15:00+27nne22475 0.0 10041382
18:00+22wnw5969100 0.1 1004252
21:00+17wnw71295100 7.1 1007412
18 may, tue
tue1800:00+15wnw81591100 2.1 1008603
03:00+15wnw71491100 3.0 1009630
06:00+14w71492100 2.0 1011651
09:00+15wnw4888100 6.1 1011570
12:00+19nw466599 0.0 1012955
15:00+22nnw335526 0.0 10111525
18:00+19nne336898 0.0 101282
21:00+16ese22760 0.0 101216
19 may, wed
wed1900:00+14se34841 0.0 101172
03:00+13se348849 0.0 101064
06:00+14se4108661 0.0 1008291
09:00+19s137241 0.0 1010796
12:00+18wnw797036 1.5 1012783
15:00+19nw576029 1.5 10141170
18:00+17e1276100 0.8 101627
21:00+14e128670 1.1 101724
20 may, thu
thu2000:00+13e228880 0.1 101729
03:00+13sse36925 0.1 1017127
06:00+13sse27913 0.0 1018207
09:00+18sse68645 0.0 1017864
12:00+21se67555 0.0 10161241
15:00+22se675233 0.0 10161324
18:00+20ese4863100 0.0 1015341
21:00+16ese48725 0.0 1016118
21 may, fri
fri2100:00+13se412680 0.0 1015217
03:00+11ese410742 0.0 1016198
06:00+12ese410815 0.0 1015236
09:00+19ese68671 0.0 1014507
12:00+24ese78560 0.0 1014852
15:00+26ese79490 0.0 10131128
18:00+23ese713595 0.0 1013520
21:00+18ese714595 0.0 1014376